Location: Ferchesar
(52.6477°N, 12.4298°E)
Time: 17:36:14
(UTC+01:00)

Vanguard 1 - Pass Details

Date: 11 December 2021
Orbit: 652 x 3830 km, 34.2° (Epoch: 22 January)

Event Time Altitude Azimuth Distance (km) Brightness Sun altitude
Rises 23:33:22 0° 242° (WSW) 6,717 14.3 -59.9°
Enters shadow 23:35:11 - 240° (WSW) 6,421 14.1 -59.9°
Reaches altitude 10° 23:37:38 10° 236° (SW) 6,041 - -60.0°
Maximum altitude 23:56:26 45° 173° (S) 4,606 - -60.4°
Exits shadow 00:15:36 13° 112° (ESE) 6,348 14.0 -60.3°
Drops below altitude 10° 00:16:56 10° 110° (ESE) 6,544 14.1 -60.3°
Sets 00:21:47 0° 105° (ESE) 7,293 14.5 -60.2°
